Location: Doughton Park
(36.4224°N, 81.1835°W)
Time: 23:31:38
(UTC-05:00)

ISS - All Passes

Search period start: 10 February 2016 00:00
Search period end: 20 February 2016 00:00
Orbit: 399 x 408 km, 51.6° (Epoch: 10 February)

Date Brightness Start Highest point End Pass type
(mag) Time Alt. Az. Time Alt. Az. Time Alt. Az.
10 Feb - 00:25:31 10° WSW 00:26:46 12° SW 00:28:00 10° SSW night (unlit)
10 Feb - 15:25:05 10° SW 15:28:18 71° SE 15:31:33 10° NE daylight
10 Feb - 17:03:04 10° WNW 17:05:04 15° NNW 17:07:04 10° NNE daylight
10 Feb - 21:55:05 10° NNW 21:57:57 28° NNE 22:00:49 10° E night (unlit)
10 Feb - 23:31:37 10° WNW 23:34:19 24° SW 23:36:59 10° S night (unlit)
11 Feb - 14:32:48 10° SSW 14:35:43 31° SE 14:38:39 10° ENE daylight
11 Feb - 16:09:28 10° W 16:12:11 24° NNW 16:14:54 10° NNE daylight
11 Feb - 21:02:49 10° NNW 21:05:06 17° NNE 21:07:23 10° ENE night (unlit)
11 Feb - 22:38:35 10° WNW 22:41:45 52° SW 22:44:54 10° SSE night (unlit)
12 Feb - 13:41:13 10° SSE 13:43:12 15° SE 13:45:11 10° E daylight
12 Feb - 15:16:15 10° WSW 15:19:22 42° NW 15:22:29 10° NE daylight
12 Feb - 20:10:52 10° N 20:12:08 12° NNE 20:13:24 10° NE visible
12 Feb - 21:45:51 10° NW 21:49:05 69° NE 21:52:18 10° SE night (unlit)
13 Feb - 14:23:22 10° SW 14:26:37 90° SE 14:29:52 10° NE daylight
13 Feb - 16:01:45 10° WNW 16:03:28 13° NNW 16:05:10 10° N daylight
13 Feb - 20:53:18 10° NNW 20:56:17 34° NE 20:59:17 10° ESE visible
13 Feb - 22:30:09 10° W 22:32:33 19° SW 22:34:58 10° S night (unlit)
14 Feb - 13:30:52 10° SSW 13:33:55 39° SE 13:37:00 10° ENE daylight
14 Feb - 15:07:57 10° W 15:10:28 21° NNW 15:13:01 10° NNE daylight
14 Feb - 20:00:53 10° NNW 20:03:23 20° NNE 20:05:52 10° E visible
14 Feb - 21:36:52 10° WNW 21:39:56 41° SW 21:43:00 10° SSE night (unlit)
15 Feb - 12:38:55 10° S 12:41:18 19° SE 12:43:40 10° E daylight
15 Feb - 14:14:31 10° WSW 14:17:33 35° NW 14:20:34 10° NNE daylight
15 Feb - 19:08:43 10° N 19:10:21 13° NNE 19:11:59 10° NE visible
15 Feb - 20:43:58 10° NW 20:47:12 87° NE 20:50:26 10° SE visible
16 Feb - 13:21:26 10° SW 13:24:41 72° NW 13:27:55 10° NE daylight
16 Feb - 15:00:14 10° NW 15:01:36 12° NNW 15:02:58 10° N daylight
16 Feb - 19:51:15 10° NW 19:54:21 41° NE 19:57:26 10° ESE visible
16 Feb - 21:28:29 10° W 21:30:32 16° SW 21:32:34 10° SSW night (unlit)
17 Feb - 12:28:42 10° SSW 12:31:52 50° SE 12:35:02 10° ENE daylight
17 Feb - 14:06:10 10° WNW 14:08:30 18° NNW 14:10:51 10° NNE daylight
17 Feb - 18:58:43 10° NNW 19:01:23 23° NNE 19:04:03 10° E visible
17 Feb - 20:34:54 10° WNW 20:37:51 32° SW 20:40:47 10° SSE visible
18 Feb - 11:36:29 10° S 11:39:07 23° SE 11:41:47 10° ENE daylight
18 Feb - 13:12:32 10° W 13:15:27 30° NNW 13:18:22 10° NNE daylight
18 Feb - 18:06:21 10° N 18:08:17 15° NNE 18:10:13 10° ENE daylight
18 Feb - 19:41:50 10° NW 19:45:03 75° SW 19:48:17 10° SE visible
19 Feb - 10:45:22 10° SE 10:46:26 11° SE 10:47:29 10° ESE daylight
19 Feb - 12:19:15 10° WSW 12:22:28 58° NW 12:25:42 10° NE daylight
19 Feb - 13:58:33 10° NW 13:59:29 11° NNW 14:00:24 10° N daylight
19 Feb - 17:14:45 10° NNE 17:15:05 10° NNE 17:15:25 10° NNE daylight
19 Feb - 18:48:59 10° NW 18:52:09 50° NE 18:55:18 10° ESE visible
19 Feb - 20:26:42 10° W 20:28:14 13° SW 20:29:45 10° SSW visible
